Theta_e
309 310 311 312 313 315 317 314 315 315 314 316 316 317 318 319 324 325 324 322 322 322 321 318 317 315 315 322 327 331 334 341 346 348 349 349 349 349 347 344 345 344 346 347
310 310 311 312 314 314 316 316 317 317 315 315 316 318 318 319 319 320 321 321 323 321 321 320 318 319 318 323 329 333 339 340 345 348 345 346 348 347 349 350 351 351 345 332
313 313 312 314 316 316 316 316 317 317 317 317 317 317 317 317 317 316 316 318 319 319 320 319 320 321 325 331 332 337 341 343 344 343 343 341 346 345 341 340 333 325 324 322
316 316 315 316 318 317 318 316 316 317 317 318 317 320 320 319 317 317 318 317 316 317 318 319 323 322 324 328 330 333 336 339 339 342 337 334 332 329 327 325 323 320 319 318
315 315 316 316 317 317 318 317 317 317 319 318 318 319 319 317 319 319 318 321 320 319 318 319 318 322 322 324 325 328 329 329 326 326 324 324 322 323 320 320 319 319 318 318
315 315 317 317 316 317 316 316 316 316 318 320 320 319 319 319 319 321 322 320 318 319 318 318 318 320 320 321 324 324 322 321 321 321 320 320 320 319 319 320 322 323 322 321
316 316 316 316 317 319 316 318 320 320 319 320 316 318 319 319 321 321 321 319 318 317 318 318 320 321 321 322 323 324 325 322 321 321 321 321 321 320 324 327 324 325 324 325
320 317 317 319 320 320 320 318 320 320 320 319 318 319 322 321 318 317 318 319 317 315 315 315 315 314 314 314 314 315 316 317 316 315 316 316 317 321 321 321 322 322 322 323
319 318 320 320 321 321 321 322 317 322 320 321 320 322 323 321 320 319 319 317 317 317 317 316 315 314 314 314 314 315 315 314 314 313 314 314 314 316 318 318 320 322 322 322
319 323 321 322 321 320 322 319 324 323 325 322 322 324 325 324 322 320 319 319 318 316 315 314 313 311 310 310 310 311 310 311 311 311 311 311 311 311 311 311 313 314 317 321
317 321 322 321 322 323 322 324 323 323 323 324 321 322 322 323 322 320 319 317 316 315 313 312 311 310 309 308 308 309 309 309 309 309 309 309 309 309 309 310 310 310 311 311
319 322 324 322 319 319 320 322 325 331 328 325 326 325 318 319 318 319 318 315 314 313 312 311 310 309 308 308 307 307 308 307 307 307 307 307 308 308 308 308 309 309 309 309
324 324 326 324 322 320 322 324 324 324 325 327 326 325 317 317 317 317 317 315 313 312 312 311 310 309 307 307 306 306 306 306 306 306 306 306 306 306 306 306 306 306 307 307
322 322 324 327 322 321 324 325 324 324 328 324 324 324 320 318 318 316 315 314 313 312 311 310 310 309 307 306 306 305 305 305 305 304 304 304 304 304 304 304 304 304 305 305
320 324 321 320 319 319 321 322 322 323 322 323 321 324 322 321 319 316 314 313 313 312 310 309 309 308 306 305 305 304 304 303 303 303 303 303 302 302 302 302 303 303 303 303
316 321 318 318 315 316 318 318 318 318 318 320 319 320 317 316 314 313 313 312 312 310 309 308 307 306 305 304 304 303 302 302 301 301 301 302 302 302 302 301 302 302 302 302
318 319 318 317 314 314 314 313 314 315 315 316 317 316 316 315 314 313 312 311 310 308 307 307 306 305 304 303 301 301 301 300 300 300 301 301 300 301 301 300 300 300 300 300
317 316 315 316 314 314 314 317 316 316 316 316 316 315 313 312 311 310 309 309 308 307 306 305 304 303 302 300 299 300 299 299 299 299 299 299 299 298 298 299 299 299 299 299
313 315 316 317 315 313 317 319 319 319 319 315 315 313 312 311 311 311 307 306 306 305 304 302 301 301 299 298 298 297 298 298 298 298 298 297 297 297 298 298 298 298 298 298
312 313 316 314 317 316 320 317 316 317 321 313 313 312 311 310 314 312 307 305 304 302 300 299 298 297 297 296 295 296 297 297 297 296 296 296 296 296 297 297 298 298 298 298
316 316 316 315 317 315 313 316 314 320 318 312 310 310 309 309 308 306 304 303 301 299 298 297 296 296 295 295 295 296 296 295 295 295 296 296 296 296 297 298 298 299 298 298
314 315 315 315 318 318 315 316 317 315 311 310 308 306 307 305 304 302 301 300 299 297 296 295 295 295 294 295 294 293 293 295 295 295 295 296 297 298 298 299 299 299 299 299
318 317 318 316 316 317 314 313 311 311 309 306 306 303 302 302 301 300 299 298 296 295 294 294 293 293 294 292 292 293 294 294 294 295 297 298 299 300 300 300 300 300 300 301
317 315 317 316 316 316 310 306 307 306 305 303 301 300 300 300 299 298 296 295 294 293 293 293 293 292 292 292 292 293 293 293 294 295 297 299 299 299 301 301 301 301 302 302
314 315 315 315 316 311 309 306 303 302 301 300 299 299 299 298 297 296 295 294 293 293 293 292 291 291 291 291 292 292 292 292 293 294 297 297 299 300 301 302 302 302 302 303
311 315 317 316 315 314 308 303 302 302 301 299 299 299 298 296 296 295 294 293 292 292 291 291 291 291 290 290 290 291 291 291 291 293 295 298 299 301 301 302 303 303 303 305
Wind_Speed
7 11 14 16 15 13 13 9 15 16 21 18 22 21 20 14 15 13 14 18 22 22 20 13 16 22 22 21 21 23 23 21 20 19 17 17 21 17 17 19 20 18 16 13
7 15 14 14 14 13 13 16 11 4 13 15 20 24 22 16 15 17 14 23 23 19 23 17 12 13 22 27 27 25 22 21 20 16 15 9 14 12 14 13 13 12 13 12
9 5 16 11 11 13 15 14 11 6 5 9 9 18 16 16 17 15 20 24 23 23 21 12 10 16 18 22 29 22 17 18 20 21 20 12 14 9 8 12 13 15 12 10
8 9 10 12 15 14 16 15 15 9 5 7 5 8 11 11 14 10 8 11 13 13 12 9 9 14 18 20 12 14 15 13 13 15 15 17 14 13 12 14 12 12 12 11
9 12 11 10 16 17 17 12 15 14 9 4 6 5 6 4 7 7 2 3 4 5 3 5 6 11 12 11 9 11 11 13 14 18 17 19 14 13 12 13 13 15 14 14
10 3 5 5 7 14 5 5 5 3 5 10 10 8 7 4 2 1 2 7 9 9 7 7 8 6 7 8 10 12 13 13 13 14 14 14 13 12 12 14 15 15 16 17
5 9 5 4 6 5 6 8 6 7 7 7 4 7 0 2 3 4 5 9 11 12 13 13 12 9 10 12 12 10 7 6 4 5 5 7 8 9 10 11 12 13 15 18
10 9 9 9 10 7 7 7 7 12 7 8 3 6 3 4 5 6 8 11 14 15 14 15 14 16 16 15 14 12 11 9 5 5 7 9 12 10 12 14 16 16 17 18
10 10 3 6 4 5 6 5 2 6 1 4 4 2 1 5 8 9 11 12 13 13 14 15 16 20 19 21 21 18 16 13 11 10 8 7 6 6 8 13 15 16 17 20
5 4 2 4 4 6 5 9 4 3 6 8 6 5 6 11 8 8 10 11 11 12 13 13 13 17 17 16 15 15 13 11 9 8 8 7 7 8 10 11 11 11 12 14
5 3 3 2 1 5 5 5 4 4 1 6 7 4 0 7 6 9 11 10 10 10 10 10 10 13 13 13 14 13 11 9 9 9 10 11 13 15 15 16 16 16 17 17
2 3 4 3 3 4 1 2 3 4 5 1 0 3 3 7 8 10 10 9 9 9 8 7 8 9 10 11 9 8 9 10 12 14 16 18 19 19 20 20 21 21 23 23
8 2 2 3 3 3 2 2 3 4 1 9 8 3 6 6 7 7 8 7 6 5 6 6 7 8 10 11 12 13 15 17 18 18 19 21 20 21 22 23 23 23 24 25
10 5 5 5 3 3 4 6 6 2 3 4 8 4 9 8 7 6 6 4 3 4 6 8 9 11 14 15 17 18 17 18 19 20 21 22 23 23 24 24 24 24 24 25
2 5 4 7 5 4 4 8 7 7 3 5 0 6 5 8 5 5 3 2 1 2 6 8 10 10 14 17 18 18 21 22 22 23 23 23 22 23 23 23 23 23 24 24
3 4 4 3 4 2 4 6 7 7 7 9 9 12 7 3 7 5 2 2 3 3 7 10 11 12 15 17 18 21 23 23 22 22 23 24 23 23 23 23 24 24 24 25
3 6 3 4 1 2 6 10 12 5 5 7 9 8 1 4 3 1 3 4 1 6 10 11 12 14 17 18 21 24 23 22 23 23 23 24 24 23 23 24 24 25 25 26
6 5 2 4 4 4 5 3 6 7 5 4 4 6 6 4 3 5 3 5 6 10 13 14 15 18 18 20 23 22 23 23 22 23 23 23 23 24 24 24 24 25 25 25
3 4 4 3 4 2 5 4 5 3 5 3 5 4 4 7 6 7 6 8 11 13 14 17 19 20 24 23 21 21 22 21 21 22 22 23 24 25 26 26 25 25 25 25
8 6 4 3 3 4 4 4 4 1 4 3 3 3 4 7 5 3 10 14 15 17 17 20 22 23 21 22 20 21 22 21 21 22 24 24 25 25 26 26 26 26 25 25
4 2 3 4 1 2 2 1 3 4 4 4 3 4 4 5 5 12 14 13 15 16 19 21 21 21 20 21 20 21 21 21 21 22 23 24 25 25 26 26 25 24 24 24
5 5 3 2 2 2 2 2 3 6 6 5 6 6 6 8 10 12 14 15 16 19 21 20 21 20 20 19 19 20 20 21 22 23 24 25 25 24 24 24 24 23 24 22
5 1 5 3 2 7 8 9 6 3 8 6 5 5 7 8 10 11 13 14 15 19 19 19 19 21 20 19 18 20 21 22 23 23 23 24 24 24 23 25 22 22 21 19
4 2 3 4 5 8 10 11 11 11 11 8 6 6 7 10 11 12 12 13 13 17 18 20 20 19 19 19 18 18 20 20 20 21 22 23 24 26 26 23 21 20 20 18
2 7 7 5 10 12 9 11 10 11 10 8 6 7 9 10 12 13 13 13 16 18 17 18 17 17 18 19 19 19 19 19 19 20 21 22 22 24 26 24 22 22 23 22
2 5 4 2 8 6 9 9 9 10 9 7 6 7 9 11 12 13 12 15 15 16 18 16 15 17 19 20 20 19 19 19 19 20 19 21 23 23 23 22 23 26 23 22
Wind_Direction
186 205 211 225 207 240 246 246 230 226 213 206 218 226 232 220 208 207 235 264 265 266 260 240 251 245 229 224 218 214 207 201 191 186 187 201 209 210 216 221 226 229 230 229
178 223 217 222 237 235 241 260 239 295 192 203 218 230 229 216 222 213 206 239 258 275 279 274 242 221 212 211 213 211 209 201 193 187 187 189 191 205 213 215 216 209 203 202
195 214 209 202 239 239 234 244 252 240 154 220 196 229 233 220 229 216 220 227 238 245 251 242 221 218 209 209 210 213 209 202 194 191 188 184 184 186 186 185 185 190 195 204
219 216 183 210 230 220 244 229 242 249 224 230 218 217 204 179 198 210 202 202 218 219 220 222 215 213 211 214 210 212 211 208 201 197 187 179 169 170 192 193 200 204 208 224
193 179 192 217 229 203 244 225 229 236 230 222 193 234 173 157 211 167 233 57 33 28 8 261 223 225 226 223 202 191 177 168 170 171 174 172 178 192 200 206 206 212 223 232
191 194 187 213 202 198 134 142 127 157 208 232 217 231 197 168 124 130 67 27 26 18 26 33 60 112 136 156 151 154 159 165 172 183 191 201 203 206 209 214 219 223 229 232
180 204 210 191 208 155 189 185 181 195 201 226 176 201 93 52 28 340 21 52 56 53 53 50 50 70 104 117 122 135 121 87 171 207 232 253 265 268 260 260 251 245 237 234
199 213 201 192 219 216 194 216 229 216 193 184 168 210 136 23 53 85 89 77 64 58 56 56 55 59 64 65 69 74 70 58 23 348 321 299 292 289 279 279 273 270 265 266
187 216 167 200 174 197 160 207 94 107 33 201 155 107 16 97 85 89 81 70 61 63 65 70 67 63 62 61 60 64 67 66 58 50 43 27 359 327 303 292 286 280 278 275
190 148 117 115 138 62 227 135 176 155 193 223 167 185 152 163 126 93 70 73 77 74 70 67 67 64 60 57 56 53 50 43 31 21 11 355 340 328 316 310 304 306 300 289
141 192 153 225 39 181 151 162 78 93 358 235 231 174 198 154 132 104 101 97 88 78 75 71 62 52 47 41 36 32 26 15 5 353 337 322 314 310 305 299 298 293 290 287
92 89 148 157 351 283 348 116 175 186 184 114 260 143 71 125 125 128 125 119 106 97 88 72 52 39 29 24 19 15 2 345 334 324 320 316 310 309 305 298 295 292 289 286
134 73 161 185 186 155 156 86 95 95 96 208 224 158 134 134 125 126 126 119 110 89 62 39 27 16 7 4 356 350 340 333 329 323 316 310 306 304 300 297 296 293 291 287
109 128 209 222 87 117 155 145 140 147 194 215 238 177 173 176 152 146 147 130 105 49 21 7 358 354 351 348 342 336 329 324 317 313 309 306 304 303 301 299 297 295 292 289
102 137 153 92 101 82 143 165 165 195 176 236 163 232 225 214 201 163 141 164 217 5 359 353 344 339 334 329 326 322 318 317 316 312 308 305 303 301 300 298 296 295 293 289
24 110 124 109 83 103 229 240 241 238 242 257 268 274 283 95 126 154 171 277 266 332 340 336 332 326 323 322 320 318 314 313 314 309 305 304 302 301 299 298 297 296 295 293
86 133 136 158 137 177 250 238 223 211 208 238 243 277 167 127 136 86 322 315 299 343 332 327 324 321 320 318 317 313 313 313 310 306 304 302 302 300 300 300 298 296 296 296
122 108 81 131 165 211 51 318 204 167 136 168 116 89 81 65 358 325 9 68 355 336 328 325 323 319 316 315 315 313 313 311 308 305 303 305 305 305 303 301 300 299 298 296
62 116 110 160 193 28 128 108 129 192 135 100 119 92 39 357 320 107 85 9 338 329 325 322 321 319 318 317 318 313 312 310 308 307 309 310 308 305 303 300 296 293 293 293
80 81 103 155 183 177 103 104 4 203 188 127 111 69 21 348 308 17 347 336 330 328 326 323 320 316 318 319 318 314 311 313 311 314 310 308 306 302 296 293 292 292 290 288
137 132 140 149 155 122 89 357 320 219 77 107 82 58 18 344 330 318 322 325 323 323 322 320 315 313 317 317 316 311 313 309 309 310 310 308 303 298 296 294 293 291 292 291
149 141 156 130 204 195 5 151 242 101 94 91 68 36 353 331 324 325 325 327 328 326 324 323 318 318 317 319 319 312 305 312 313 310 308 307 306 305 304 300 296 298 292 285
150 192 158 198 103 107 74 83 67 93 109 76 59 24 349 332 329 325 324 326 324 323 323 323 321 317 319 320 315 308 308 315 315 312 311 315 317 316 315 301 297 298 294 286
115 128 94 147 148 121 108 95 91 90 97 88 61 31 5 344 338 334 331 329 329 329 330 326 322 320 315 318 317 312 315 314 315 316 320 323 320 313 311 309 303 295 296 293
56 161 135 115 122 102 95 107 109 101 94 84 68 43 24 1 353 345 338 338 334 331 329 330 322 315 316 324 324 323 322 324 321 320 318 319 315 312 312 307 302 298 297 291
190 141 174 142 154 108 124 121 126 102 87 66 35 17 20 9 358 350 345 338 332 334 332 327 328 333 331 330 328 328 329 330 325 319 319 315 313 316 314 310 303 313 310 312